Location: Chacón
(10.5789°N, 66.9317°W)
Time: 22:53:10
(UTC+00:00)

Cosmos 1339 Rocket - Pass Details

Date: 14 August 2024
Orbit: 941 x 1006 km, 82.9° (Epoch: 12 September)

Event Time Altitude Azimuth Distance (km) Brightness Sun altitude
Rises 23:30:08 0° 340° (NNW) 3,598 8.0 -11.2°
Reaches altitude 10° 23:32:49 10° 331° (NNW) 2,658 7.5 -11.8°
Maximum altitude 23:38:12 34° 268° (W) 1,510 6.2 -13.1°
Drops below altitude 10° 23:43:40 10° 205° (SSW) 2,690 6.9 -14.4°
Sets 23:46:25 0° 196° (SSW) 3,646 7.5 -15.0°
